星链-5581 (STARLINK-5581 )

导读 | 星芒AI

STARLINK-5581 是 SpaceX 星链(Starlink)卫星互联网项目中的一颗低轨通信卫星。它属于星链计划的第五批部署卫星,旨在为全球用户提供高速、低延迟的互联网服务。该卫星运行在约 550 公里的近地轨道,配备先进通信设备和激光链路,支持卫星间直接通信。STARLINK-5581 的发射和运行有助于扩展星链网络的覆盖范围,提升网络稳定性和数据传输效率,特别是在偏远和网络基础设施薄弱的地区。

基本信息
目录编号:
55373
目录名称:
STARLINK-5581
国际标识:
2023-013AU
轨道中心:
EARTH
卫星名称:
星链-5581
卫星全名:
星链-5581 (STARLINK-5581 )
卫星状态:
在轨 (已飞行1060 天)
发射日期:
2023-01-26 UTC
国别 :
美国 (US)
星等 :
--
轨道信息
数据来源 国际轨道数据 AOE轨道数据
星历时间 2025-12-21T10:06:33+0800
12小时前
查看轨道信息
2025-12-20T01:00:00+0800
1天前
查看轨道信息
半长轴 6937.219km 6937.209km
偏心率 0.0001236 0.0001062
轨道倾角 43.005° 43.005°
近地点辐角 269.014° 267.365°
升交点赤经 20.588° 28.085°
平近点角 91.056° 181.990°
近地点 558.224km 558.335km
远地点 559.94km 559.809km
周期 95.838分钟 95.838分钟
每日圈数 15.025353 15.025385
详细信息
固有亮度:
5
最大亮度:
2.5
卫星平台:
Starlink v1.5
覆盖范围:
全球
运营商:
太空探索技术公司
运营商所在国:
美国
制造商(研发单位):
太空探索技术公司
制造商所在国:
美国
使用方式:
暂无
卫星简介
星链(Starlink)计划是由太空探索技术公司(SpaceX)提出的一个巨型低轨卫星互联网星座项目,计划在2019年至2024年间在太空搭建由约1.2万颗卫星组成的“星链”网络,其中1584颗将部署在地球上空550千米处的近地轨道,并从2020年开始工作。该卫星仍在工作。
2D轨道图
3D轨道图
轨道高度分析图
轨道倾角分析图
轨道综合分析图
查看轨道综合分析图